Theta_e
336 337 338 336 336 335 332 330 332 333 331 329 329 326 327 327 324 326 329 329 328 326 326 331 340 342 343 343 342 339 340 337 336 339 342 342 343 345
338 338 334 333 337 334 329 330 329 327 329 327 325 325 324 325 324 325 325 326 327 327 328 327 329 338 342 342 341 341 341 340 336 337 340 344 346 345
337 333 333 333 330 327 327 327 326 326 326 326 325 324 325 326 325 325 326 326 327 327 328 330 329 329 331 335 339 340 340 337 332 338 336 344 345 346
328 327 325 323 324 325 325 326 326 325 325 325 326 326 326 325 327 325 325 325 325 326 327 328 329 330 330 330 329 329 329 333 331 339 343 344 345 344
323 322 323 324 324 323 323 324 324 325 326 325 327 329 329 328 326 326 325 325 326 327 328 329 330 330 330 330 330 329 328 328 330 336 339 344 344 346
323 323 324 323 322 322 322 322 322 324 324 324 326 327 328 329 328 327 326 326 326 326 327 328 329 328 328 330 330 330 330 331 332 338 341 343 344 344
324 323 321 321 321 322 322 322 324 325 325 327 325 326 324 326 328 327 327 326 324 323 323 323 324 324 325 326 330 330 332 334 334 336 343 344 345 345
323 322 321 321 321 322 321 323 324 325 325 325 325 326 325 328 327 326 325 323 324 323 322 322 323 323 323 323 328 334 333 333 335 334 334 342 343 344
323 322 321 321 321 321 321 323 324 324 325 325 326 325 325 324 323 324 324 324 323 322 322 322 323 323 323 322 322 323 329 333 339 339 336 339 338 340
320 319 320 322 321 323 323 324 322 323 323 323 323 323 323 324 322 321 321 321 321 321 321 321 321 321 321 321 322 320 323 328 332 336 341 340 340 342
319 320 322 323 321 322 322 322 323 323 324 324 324 323 321 321 321 321 320 321 321 320 321 321 321 322 321 320 320 320 320 324 330 332 337 342 339 342
317 321 322 323 323 323 323 323 323 324 323 322 322 322 321 321 319 318 318 320 320 320 320 321 321 323 324 323 320 319 320 322 326 331 332 337 337 340
319 320 322 321 322 323 323 323 322 322 323 322 321 321 321 321 317 318 318 319 319 320 320 321 320 322 323 324 324 327 333 331 329 328 330 333 336 338
320 323 322 321 323 322 322 321 322 323 322 322 322 321 321 317 319 318 318 318 319 319 319 319 320 320 323 324 324 321 320 329 334 337 332 332 335 336
322 320 320 320 320 321 320 322 321 321 322 322 322 322 318 317 317 318 317 319 321 326 326 324 320 321 322 324 325 325 322 324 329 333 337 337 334 334
320 319 320 318 320 320 320 320 321 321 321 321 322 322 320 317 317 317 316 319 322 327 327 326 322 321 321 321 324 324 325 329 331 330 339 339 339 336
316 317 317 318 319 320 319 319 321 321 321 321 322 322 321 317 317 316 317 319 320 325 327 326 324 323 321 321 322 324 326 325 328 333 335 340 342 340
314 314 315 314 315 316 318 318 318 319 319 319 319 321 322 319 317 316 317 319 319 322 328 329 326 324 323 323 322 323 325 328 330 332 332 337 338 338
311 311 310 310 313 309 311 312 315 316 316 317 317 319 321 321 318 316 316 320 318 320 324 329 329 326 324 324 324 324 325 328 332 333 333 336 336 336
307 307 306 303 302 301 301 304 307 309 310 311 315 316 320 320 321 318 319 319 320 318 321 325 326 327 326 325 325 328 325 329 331 334 336 339 339 338
306 304 303 300 299 299 299 299 299 300 300 302 305 313 316 319 321 321 320 317 320 318 320 322 325 330 331 332 332 331 332 333 332 333 335 337 340 338
301 301 299 299 299 299 299 299 299 299 299 300 301 304 313 317 319 320 321 320 320 317 319 322 324 329 330 330 330 330 329 331 332 333 334 335 338 339
299 297 297 297 298 298 299 299 299 299 299 299 300 301 304 313 317 319 321 321 321 319 318 318 322 322 322 321 321 322 323 326 328 330 334 334 337 338
Wind_Speed
29 31 33 36 38 37 39 38 36 36 37 38 39 43 40 34 32 31 30 30 30 31 31 33 29 28 27 26 24 23 22 24 27 32 30 29 31 29
32 35 38 40 41 41 39 35 37 40 39 38 43 42 40 37 34 31 31 31 31 30 30 31 34 31 31 30 29 29 28 28 28 29 29 27 28 29
35 39 39 40 41 40 37 37 37 38 42 40 41 41 40 35 32 31 30 30 31 31 30 28 31 33 33 34 34 33 31 29 30 28 29 27 27 29
37 38 38 37 37 37 37 38 39 38 39 44 35 36 37 35 33 32 31 29 30 32 31 30 29 30 32 34 36 37 36 34 31 27 25 24 25 27
33 34 33 32 34 36 37 39 39 38 39 43 40 36 36 37 36 32 31 31 29 27 29 29 28 27 29 31 32 33 34 33 31 28 28 28 27 26
30 30 31 34 37 40 40 40 40 39 39 41 42 35 33 34 34 35 32 28 29 27 28 29 30 29 28 30 29 31 30 31 30 29 30 31 29 28
30 32 34 37 38 36 36 37 34 35 37 38 41 36 34 32 33 30 29 27 27 28 31 30 29 28 24 26 28 28 30 30 30 30 30 30 28 28
34 37 38 39 39 37 34 32 31 32 34 36 38 38 34 28 27 28 30 32 30 30 31 34 32 33 30 25 24 25 28 29 29 30 31 30 29 28
37 40 41 37 36 33 29 30 28 26 28 31 24 22 21 24 27 32 34 35 36 34 34 42 37 39 35 33 28 28 30 30 29 28 30 31 30 27
36 39 35 30 28 26 27 26 28 32 32 29 28 27 25 24 23 29 35 39 40 39 39 45 45 45 40 38 33 28 29 30 32 30 29 29 29 29
33 30 26 28 22 23 26 31 33 29 26 20 18 18 20 24 27 32 39 38 41 42 38 41 45 45 45 42 37 33 28 29 32 32 31 29 27 27
33 27 24 25 21 21 23 26 27 16 19 25 23 23 24 27 31 40 41 40 39 42 38 39 37 34 32 31 29 28 25 26 30 32 31 30 27 26
32 27 24 27 26 22 17 14 14 20 22 22 23 26 24 27 36 45 35 39 47 51 45 40 37 36 40 25 16 12 11 18 23 29 31 31 30 25
26 24 26 28 21 8 6 12 18 19 20 23 25 26 23 37 39 51 42 41 36 44 44 41 42 41 35 31 32 31 26 23 17 18 26 30 30 27
20 18 18 20 18 4 8 15 16 17 19 22 25 26 22 38 44 51 46 44 32 21 24 31 40 40 36 32 26 25 23 22 18 15 16 24 31 30
18 20 20 15 12 12 14 13 16 17 21 24 27 30 24 36 51 56 49 48 27 19 16 15 28 36 35 37 29 27 26 15 15 17 13 19 24 27
17 15 14 14 16 16 13 17 19 20 22 25 28 34 27 35 51 58 51 48 35 21 17 10 17 24 28 28 27 25 23 28 22 20 14 16 19 21
14 15 17 16 18 17 19 20 20 23 25 26 28 30 32 31 42 56 53 47 42 35 19 15 12 21 25 25 25 24 26 22 22 24 21 21 19 19
16 19 20 22 21 22 22 22 23 23 24 26 29 33 36 29 33 45 52 50 55 44 33 4 10 16 23 20 20 26 25 22 19 19 22 23 24 22
21 22 24 27 25 25 24 23 23 24 25 26 26 28 31 34 28 34 39 44 45 45 39 21 11 14 18 20 16 16 21 26 23 19 20 20 21 20
20 23 23 23 24 24 24 24 24 25 25 26 26 26 28 31 33 27 32 40 42 44 45 34 20 4 8 13 17 12 12 16 23 25 23 20 20 20
21 24 25 25 25 25 24 24 24 25 25 25 26 27 26 28 31 34 29 30 35 43 44 35 25 13 8 4 8 9 4 5 10 20 25 20 18 14
25 25 24 23 24 24 24 25 25 26 27 27 27 28 28 26 29 30 31 28 29 31 40 42 37 28 24 23 18 13 13 13 11 12 17 14 17 16
Wind_Direction
291 298 301 304 299 299 301 301 301 301 301 303 304 305 305 304 298 296 290 286 282 278 272 264 259 251 248 247 257 256 267 273 269 264 266 260 251 256
296 299 297 296 297 300 300 297 298 300 296 301 304 303 302 301 297 292 288 286 282 281 276 268 262 256 251 250 254 259 263 270 272 273 256 251 252 254
296 297 296 298 298 297 298 300 303 304 301 301 301 302 301 301 296 292 288 284 282 279 277 273 267 261 257 255 254 260 260 270 273 272 251 249 249 256
300 298 301 301 298 301 303 304 303 303 301 302 302 302 300 298 296 294 293 289 284 280 280 276 272 266 262 260 260 259 261 265 267 258 249 247 251 252
302 303 302 302 305 308 308 305 303 301 299 298 299 299 296 295 296 294 295 294 291 286 279 278 277 272 265 262 263 260 256 257 258 250 248 250 252 250
304 303 305 307 310 313 310 306 304 301 298 297 298 294 293 296 295 299 301 295 292 286 279 276 278 279 270 262 261 260 256 251 251 249 247 250 252 250
306 307 308 312 312 310 308 306 303 300 298 295 293 290 290 292 295 302 300 302 296 294 293 289 287 284 277 264 259 255 252 250 249 246 246 247 245 245
310 310 311 312 313 311 307 305 303 300 297 293 291 287 285 292 301 301 298 297 296 297 301 296 292 285 278 269 256 252 248 246 246 245 242 242 243 244
311 310 313 316 314 312 309 305 303 302 299 299 300 311 308 303 301 298 297 295 292 295 294 290 288 284 280 276 271 263 251 248 244 240 238 239 245 241
309 308 312 317 317 314 308 305 304 305 307 306 300 302 301 302 301 307 301 289 285 288 293 286 288 285 285 282 275 269 257 245 244 239 236 234 240 236
316 319 317 317 315 311 305 305 313 309 317 314 308 307 311 313 306 305 308 298 290 286 283 279 281 279 280 279 275 271 257 247 240 238 235 233 240 239
325 323 318 319 309 302 304 308 309 323 323 314 305 301 304 314 316 321 315 299 289 284 277 265 270 263 269 275 271 270 256 244 237 235 232 231 236 243
319 319 318 321 306 305 313 318 321 319 320 323 322 323 320 322 330 336 310 296 289 278 281 254 263 253 247 252 235 230 248 232 232 233 230 226 228 235
324 320 314 325 307 287 300 304 312 313 320 325 328 336 340 336 327 326 327 321 307 287 275 263 251 245 238 241 245 252 248 248 244 232 228 224 222 227
322 320 336 342 321 4 329 320 321 329 334 333 334 337 341 350 340 344 341 337 323 289 276 251 237 241 232 229 235 250 254 241 245 242 236 227 221 224
319 312 311 329 1 343 330 351 1 357 355 354 350 341 328 351 0 357 341 345 336 317 307 263 231 229 234 237 238 243 239 230 233 232 241 230 221 222
329 328 338 338 349 329 356 5 4 2 359 359 358 355 351 1 6 4 352 351 356 332 299 277 229 224 226 232 234 236 236 235 236 229 239 232 219 214
343 358 4 9 14 1 6 0 359 357 358 358 358 358 1 360 8 13 5 360 360 7 339 279 218 218 227 229 231 235 233 231 233 230 235 237 232 220
9 15 14 16 11 6 4 360 357 355 354 356 357 1 3 2 8 18 12 7 11 15 24 280 237 206 204 207 224 226 226 217 233 233 230 231 236 234
11 13 12 10 6 6 1 354 351 351 353 353 359 0 2 5 5 8 9 5 10 8 24 33 61 210 209 205 198 218 222 222 227 230 241 231 232 233
5 5 9 4 5 6 2 359 357 356 358 356 358 359 3 5 10 9 14 20 17 20 19 27 34 27 171 184 194 194 226 230 229 228 235 235 236 230
0 358 359 358 2 7 4 2 2 1 4 6 4 4 4 6 11 14 17 19 21 29 31 35 37 51 85 134 177 169 174 199 223 225 227 228 211 214
358 358 2 5 7 9 7 9 10 10 8 9 9 9 9 8 10 14 17 24 27 32 37 37 43 54 70 79 81 89 103 109 122 167 176 194 203 210